[[{"header":{"parameterUnit":"m.s-1","parameterCategory":1,"la1":30.2992,"la2":30.254,"lo1":-89.0895,"lo2":-89.0443,"dy":0.0025,"dx":0.0025,"nx":19,"ny":19,"refTime":"2026-03-07T09:00:00:Z","depth":0,"parameterNumber":2,"parameterNumberName":"U-component_of_WINDS"},"data":[0,0,0,-3.2496,-3.2498,-3.2602,-3.2603,-3.274,-3.2742,0,0,0,0,0,0,0,0,0,0,0,-3.2466,-3.2467,-3.2495,-3.2498,-3.2602,-3.2603,-3.274,-3.2742,0,0,0,0,0,0,0,0,0,0,0,-3.2466,-3.2467,-3.2468,-3.2499,-3.2602,-3.2603,-3.274,-3.266,0,0,0,0,0,0,0,0,0,0,-3.2558,-3.2532,-3.2466,-3.2468,-3.2499,-3.2602,-3.2603,-3.2656,-3.2665,-3.2695,0,-3.272,0,-3.2733,-3.2751,-3.2752,0,0,0,-3.2498,-3.2524,-3.2551,-3.2468,-3.25,-3.2602,-3.2555,-3.2661,-3.2671,-3.2706,-3.2722,-3.2727,-3.2735,-3.2752,-3.2753,-3.2921,-3.2922,0,0,-3.2492,-3.2486,-3.2544,-3.2558,-3.254,-3.2552,-3.2558,-3.2667,-3.2684,-3.2722,-3.273,-3.2738,-3.2753,-3.2754,-3.2921,-3.2922,0,0,0,-3.2476,-3.2482,-3.2506,-3.2552,-3.257,-3.2555,-3.2562,-3.2679,-3.2688,-3.2732,-3.2739,-3.2754,-3.2755,-3.292,-3.2921,-3.2953,0,0,0,-3.2472,-3.2472,-3.2503,-3.2501,-3.2568,-3.2626,-3.2572,-3.268,-3.2693,-3.2738,-3.2754,-3.2757,-3.2919,-3.292,-3.2951,-3.2969,0,0,0,-3.2459,-3.2471,-3.2486,-3.25,-3.2545,-3.2624,-3.2639,-3.2683,-3.2697,-3.2752,-3.2757,-3.2918,-3.292,-3.2948,-3.2965,-3.301,0,0,0,-3.2443,-3.2515,-3.2487,-3.257,-3.2544,-3.2644,-3.2638,-3.2713,-3.2764,-3.2754,-3.2919,-3.2921,-3.2947,-3.2963,-3.3008,-3.3046,-3.3062,0,0,-3.253,-3.2525,-3.2575,-3.2552,-3.2655,-3.2628,-3.2737,-3.279,-3.2802,-3.2881,-3.2885,-3.2951,-3.2965,-3.301,-3.3156,-3.3168,0,0,0,-3.26,-3.2636,-3.2664,-3.2711,-3.2753,-3.279,-3.2827,-3.2847,-3.2914,-3.2841,-3.2981,-3.299,-3.3016,-3.3035,-3.3045,-3.3068,-3.293,-3.293,-3.2929,-3.2714,-3.2724,-3.2806,-3.2829,-3.2875,-3.2912,-3.2951,-3.2984,-3.2982,-3.3015,-3.3038,-3.3125,-3.3146,-3.3154,-3.3177,-3.3061,-3.3061,-3.3061,-3.3061,-3.2841,-3.2892,-3.2887,-3.2964,-3.2975,-3.3041,-3.308,-3.3077,-3.314,-3.3109,-3.3133,-3.3095,-3.3167,-3.3188,-3.3064,-3.3063,-3.3063,-3.3063,-3.3062,-3.2915,-3.2941,-3.2963,-3.3032,-3.3084,-3.3106,-3.3166,-3.3175,-3.3184,-3.3207,-3.3232,-3.3231,-3.323,-3.3219,-3.3219,-3.3219,-3.322,-3.322,-3.322,-3.2982,-3.3006,-3.3055,-3.3105,-3.3135,-3.3178,-3.3216,-3.3248,-3.3285,-3.3286,-3.3287,-3.328,-3.3173,-3.3144,-3.3225,-3.3224,-3.3223,-3.3223,-3.3223,-3.3103,-3.3077,-3.3152,-3.3183,-3.3242,-3.3293,-3.3304,-3.3367,-3.3394,-3.3424,-3.3414,-3.3333,-3.3329,-3.3321,-3.3297,-3.3412,-3.3412,-3.3412,-3.3412,-3.3164,-3.3163,-3.3241,-3.329,-3.3339,-3.3356,-3.3441,-3.3473,-3.3501,-3.3519,-3.3504,-3.3475,-3.3466,-3.3467,-3.3455,-3.3433,-3.358,-3.358,-3.358,-3.3238,-3.3242,-3.3312,-3.3338,-3.3385,-3.3425,-3.3506,-3.3563,-3.359,-3.3587,-3.3533,-3.3526,-3.3478,-3.3462,-3.3455,-3.3437,-3.3397,0,0]},{"header":{"parameterUnit":"m.s-1","parameterCategory":1,"la1":30.2992,"la2":30.254,"lo1":-89.0895,"lo2":-89.0443,"dy":0.0025,"dx":0.0025,"nx":19,"ny":19,"refTime":"2026-03-07T09:00:00:Z","depth":0,"parameterNumber":3,"parameterNumberName":"V-component_of_WINDS"},"data":[0,0,0,2.0581,2.0583,2.067,2.0671,2.0769,2.077,0,0,0,0,0,0,0,0,0,0,0,2.0547,2.0547,2.0581,2.0583,2.067,2.0671,2.0769,2.077,0,0,0,0,0,0,0,0,0,0,0,2.0547,2.0547,2.0548,2.0583,2.067,2.0671,2.0769,2.0708,0,0,0,0,0,0,0,0,0,0,2.0625,2.0585,2.0547,2.0548,2.0584,2.067,2.0671,2.0705,2.0712,2.0724,0,2.0732,0,2.0752,2.0775,2.0776,0,0,0,2.059,2.0579,2.0611,2.0548,2.0585,2.067,2.0633,2.0709,2.0716,2.0732,2.0733,2.0737,2.0754,2.0776,2.0776,2.0826,2.0826,0,0,2.0585,2.0558,2.0606,2.0615,2.06,2.063,2.0635,2.0713,2.0713,2.0734,2.074,2.0755,2.0777,2.0777,2.0826,2.0826,0,0,0,2.0567,2.0554,2.0584,2.0611,2.0627,2.0632,2.0639,2.0709,2.0721,2.0741,2.0757,2.0777,2.0778,2.0826,2.0826,2.0796,0,0,0,2.0564,2.0544,2.0582,2.0566,2.0626,2.0669,2.0632,2.0716,2.0726,2.0756,2.0777,2.0779,2.0826,2.0826,2.0797,2.0787,0,0,0,2.0544,2.0541,2.0551,2.0564,2.0601,2.0669,2.0685,2.0719,2.0735,2.0776,2.0779,2.0826,2.0826,2.0798,2.0788,2.0793,0,0,0,2.0515,2.0522,2.055,2.0565,2.06,2.065,2.0685,2.0724,2.0755,2.0777,2.0826,2.0826,2.0798,2.0789,2.0793,2.0792,2.0788,0,0,2.0509,2.052,2.0531,2.0559,2.0597,2.0638,2.0673,2.0727,2.0756,2.0801,2.0802,2.0797,2.0788,2.0793,2.0778,2.0775,0,0,0,2.052,2.0528,2.0544,2.0573,2.0615,2.0651,2.0704,2.0724,2.0764,2.0773,2.08,2.0796,2.08,2.08,2.0798,2.0803,2.0825,2.0825,2.0825,2.0472,2.051,2.0531,2.0579,2.0607,2.0663,2.0689,2.0727,2.0755,2.0761,2.0774,2.0761,2.076,2.0759,2.0764,2.0776,2.0776,2.0776,2.0776,2.0467,2.0485,2.0525,2.0559,2.0599,2.0629,2.0684,2.0703,2.0738,2.0753,2.0758,2.0772,2.0754,2.0761,2.0774,2.0775,2.0775,2.0775,2.0775,2.044,2.0455,2.0481,2.0529,2.0562,2.0611,2.0643,2.0679,2.0712,2.0717,2.0736,2.0737,2.0743,2.0724,2.0724,2.0724,2.0724,2.0724,2.0724,2.0402,2.0432,2.0454,2.0502,2.0527,2.0564,2.0622,2.0647,2.0685,2.0708,2.0709,2.0737,2.0746,2.0747,2.0723,2.0723,2.0723,2.0723,2.0723,2.0383,2.0394,2.0428,2.0453,2.0513,2.0545,2.0591,2.064,2.0667,2.0682,2.0711,2.0711,2.0725,2.0727,2.0729,2.0702,2.0702,2.0702,2.0702,2.036,2.0371,2.0416,2.0454,2.0496,2.0541,2.0581,2.0627,2.0676,2.0695,2.0705,2.071,2.071,2.0724,2.0727,2.0729,2.0702,2.0702,2.0702,2.0351,2.0369,2.0395,2.0443,2.0494,2.0537,2.0576,2.062,2.0678,2.0703,2.0711,2.0711,2.072,2.0721,2.0745,2.0748,2.0752,0,0]}]]